When you browse on this site, cookies collect data to enhance your experience and personalize the content and advertising you see.
Visit our Privacy Policy to learn more. By continuing to use the site, you agree to this use of cookies and data.
  • In Romania
  • List of Countries
  • For 7 days
  • Water Temperature
  • Satellite Maps
  • Weather Map
  • Weather Widgets
  • user-avatar
    Login

    Hourly Weather Aschbach

    Today, 18 July, Thursday

    Time Temperature Precipitation Wind Pressure Humidity
    00:00 +16°C° 0 mm 1 mps 714 mmHg 74%
    01:00 +18°C° 0 mm 1 mps 714 mmHg 73%
    02:00 +16°C° 0 mm 1 mps 714 mmHg 75%
    03:00 +15°C° 0 mm 1 mps 714 mmHg 76%
    04:00 +15°C° 0 mm 1 mps 714 mmHg 78%
    05:00 +16°C° 0 mm 1 mps 714 mmHg 76%
    06:00 +18°C° 0 mm 1 mps 714 mmHg 74%
    07:00 +19°C° 0 mm 1 mps 715 mmHg 69%
    08:00 +21°C° 0 mm 1 mps 715 mmHg 61%
    09:00 +23°C° 0 mm 2 mps 715 mmHg 54%
    10:00 +25°C° 0 mm 3 mps 716 mmHg 46%
    11:00 +26°C° 0 mm 3 mps 716 mmHg 43%
    12:00 +27°C° 0 mm 3 mps 716 mmHg 39%
    13:00 +28°C° 0 mm 3 mps 716 mmHg 36%
    14:00 +27°C° 0 mm 3 mps 716 mmHg 38%
    15:00 +27°C° 0 mm 2 mps 716 mmHg 39%
    16:00 +27°C° 0 mm 2 mps 716 mmHg 41%
    17:00 +26°C° 0 mm 2 mps 716 mmHg 49%
    18:00 +24°C° 0 mm 1 mps 716 mmHg 57%
    19:00 +21°C° 0 mm 0 mps 715 mmHg 66%
    20:00 +21°C° 0 mm 1 mps 716 mmHg 67%
    21:00 +20°C° 0 mm 1 mps 716 mmHg 69%
    22:00 +19°C° 0 mm 1 mps 716 mmHg 71%
    23:00 +18°C° 0 mm 1 mps 716 mmHg 73%

    Tomorrow, 19 July, Friday

    Time Temperature Precipitation Wind Pressure Humidity
    00:00 +18°C° 0 mm 1 mps 716 mmHg 75%
    01:00 +16°C° 0 mm 1 mps 716 mmHg 77%
    02:00 +16°C° 0 mm 1 mps 716 mmHg 78%
    03:00 +16°C° 0 mm 1 mps 716 mmHg 79%
    04:00 +15°C° 0 mm 1 mps 716 mmHg 80%
    05:00 +15°C° 0 mm 0 mps 717 mmHg 79%
    06:00 +16°C° 0 mm 0 mps 717 mmHg 78%
    07:00 +17°C° 0 mm 0 mps 717 mmHg 77%
    08:00 +19°C° 0 mm 0 mps 717 mmHg 70%
    09:00 +23°C° 0 mm 1 mps 717 mmHg 63%
    10:00 +25°C° 0 mm 1 mps 718 mmHg 56%
    11:00 +27°C° 0 mm 1 mps 717 mmHg 52%
    12:00 +28°C° 0 mm 1 mps 717 mmHg 48%
    13:00 +29°C° 0 mm 1 mps 717 mmHg 44%
    14:00 +29°C° 0 mm 2 mps 717 mmHg 45%
    15:00 +29°C° 0 mm 2 mps 717 mmHg 45%
    16:00 +29°C° 0 mm 2 mps 717 mmHg 45%
    17:00 +27°C° 0.1 mm 2 mps 717 mmHg 53%
    18:00 +26°C° 0.1 mm 1 mps 717 mmHg 62%
    19:00 +24°C° 0.1 mm 1 mps 717 mmHg 71%
    20:00 +23°C° 0 mm 1 mps 717 mmHg 76%
    21:00 +21°C° 0 mm 1 mps 717 mmHg 81%
    22:00 +19°C° 0 mm 1 mps 717 mmHg 86%
    23:00 +18°C° 0 mm 1 mps 717 mmHg 87%

    Day after tomorrow, 20 July, Saturday

    Time Temperature Precipitation Wind Pressure Humidity
    00:00 +18°C° 0 mm 1 mps 717 mmHg 89%
    01:00 +16°C° 0 mm 1 mps 717 mmHg 90%
    02:00 +16°C° 0 mm 1 mps 717 mmHg 90%
    03:00 +16°C° 0 mm 1 mps 717 mmHg 90%
    04:00 +15°C° 0 mm 1 mps 717 mmHg 90%
    05:00 +18°C° 0 mm 1 mps 717 mmHg 87%
    06:00 +17°C° 0 mm 0 mps 717 mmHg 83%
    07:00 +18°C° 0 mm 0 mps 717 mmHg 79%
    08:00 +21°C° 0 mm 0 mps 717 mmHg 70%
    09:00 +24°C° 0 mm 0 mps 718 mmHg 61%
    10:00 +26°C° 0 mm 0 mps 718 mmHg 52%
    11:00 +29°C° 0 mm 1 mps 718 mmHg 47%
    12:00 +30°C° 0 mm 1 mps 718 mmHg 43%
    13:00 +31°C° 0 mm 2 mps 718 mmHg 39%
    14:00 +31°C° 0.1 mm 3 mps 718 mmHg 39%
    15:00 +31°C° 0.1 mm 3 mps 718 mmHg 39%
    16:00 +33°C° 0.1 mm 3 mps 718 mmHg 38%
    17:00 +30°C° 0 mm 3 mps 718 mmHg 47%
    18:00 +28°C° 0 mm 2 mps 718 mmHg 56%
    19:00 +26°C° 0 mm 1 mps 718 mmHg 65%
    20:00 +25°C° 0.1 mm 1 mps 719 mmHg 67%
    21:00 +23°C° 0.1 mm 1 mps 719 mmHg 69%
    22:00 +22°C° 0.1 mm 1 mps 719 mmHg 71%
    23:00 +21°C° 0 mm 1 mps 719 mmHg 74%

    21 July, Sunday

    Time Temperature Precipitation Wind Pressure Humidity
    00:00 +21°C° 0 mm 1 mps 719 mmHg 76%
    01:00 +18°C° 0 mm 0 mps 719 mmHg 78%
    02:00 +17°C° 0.5 mm 0 mps 719 mmHg 82%
    03:00 +19°C° 0.5 mm 1 mps 719 mmHg 86%
    04:00 +19°C° 0.5 mm 1 mps 719 mmHg 90%
    05:00 +19°C° 0.5 mm 1 mps 720 mmHg 90%
    06:00 +20°C° 0.5 mm 1 mps 720 mmHg 89%
    07:00 +21°C° 0.5 mm 1 mps 720 mmHg 89%
    08:00 +23°C° 0.1 mm 1 mps 721 mmHg 80%
    09:00 +25°C° 0.1 mm 1 mps 721 mmHg 71%
    10:00 +27°C° 0.1 mm 1 mps 722 mmHg 61%
    11:00 +28°C° 0.1 mm 2 mps 722 mmHg 57%
    12:00 +29°C° 0.1 mm 2 mps 722 mmHg 53%
    13:00 +30°C° 0.1 mm 2 mps 722 mmHg 49%
    14:00 +30°C° 0.1 mm 2 mps 722 mmHg 49%
    15:00 +31°C° 0.1 mm 2 mps 722 mmHg 48%
    16:00 +31°C° 0.1 mm 2 mps 722 mmHg 48%
    17:00 +29°C° 0.1 mm 2 mps 722 mmHg 56%
    18:00 +28°C° 0.1 mm 1 mps 722 mmHg 64%
    19:00 +26°C° 0.1 mm 1 mps 722 mmHg 73%
    20:00 +24°C° 0.3 mm 1 mps 722 mmHg 78%
    21:00 +21°C° 0.3 mm 0 mps 722 mmHg 83%
    22:00 +19°C° 0.3 mm 0 mps 722 mmHg 87%
    23:00 +18°C° 0.1 mm 0 mps 722 mmHg 89%

    22 July, Monday

    Time Temperature Precipitation Wind Pressure Humidity
    00:00 +18°C° 0.1 mm 0 mps 722 mmHg 90%
    01:00 +17°C° 0.1 mm 0 mps 722 mmHg 92%
    02:00 +17°C° 0 mm 0 mps 722 mmHg 92%
    03:00 +17°C° 0 mm 0 mps 722 mmHg 92%
    04:00 +16°C° 0 mm 0 mps 722 mmHg 92%
    05:00 +17°C° 0 mm 0 mps 722 mmHg 91%
    06:00 +18°C° 0 mm 0 mps 722 mmHg 90%
    07:00 +19°C° 0 mm 0 mps 723 mmHg 89%
    08:00 +22°C° 0 mm 0 mps 723 mmHg 79%
    09:00 +24°C° 0 mm 0 mps 723 mmHg 70%
    10:00 +29°C° 0 mm 1 mps 723 mmHg 60%
    11:00 +30°C° 0 mm 1 mps 723 mmHg 55%
    12:00 +31°C° 0 mm 1 mps 723 mmHg 51%
    13:00 +33°C° 0 mm 1 mps 723 mmHg 46%
    14:00 +33°C° 0 mm 1 mps 723 mmHg 45%
    15:00 +33°C° 0 mm 1 mps 722 mmHg 44%
    16:00 +33°C° 0 mm 1 mps 722 mmHg 43%
    17:00 +31°C° 0 mm 1 mps 722 mmHg 52%
    18:00 +30°C° 0 mm 2 mps 722 mmHg 61%
    19:00 +28°C° 0 mm 2 mps 722 mmHg 71%
    20:00 +26°C° 0 mm 1 mps 722 mmHg 77%
    21:00 +24°C° 0 mm 1 mps 722 mmHg 83%
    22:00 +23°C° 0 mm 1 mps 722 mmHg 89%
    23:00 +22°C° 0 mm 1 mps 722 mmHg 89%

    23 July, Tuesday

    Time Temperature Precipitation Wind Pressure Humidity
    00:00 +21°C° 0 mm 1 mps 721 mmHg 90%
    01:00 +21°C° 0 mm 1 mps 721 mmHg 90%
    02:00 +20°C° 0 mm 1 mps 721 mmHg 90%
    03:00 +18°C° 0 mm 0 mps 721 mmHg 90%
    04:00 +18°C° 0 mm 0 mps 721 mmHg 90%
    05:00 +18°C° 0 mm 0 mps 721 mmHg 88%
    06:00 +19°C° 0 mm 0 mps 721 mmHg 86%
    07:00 +20°C° 0 mm 0 mps 721 mmHg 84%
    08:00 +25°C° 0 mm 1 mps 721 mmHg 76%
    09:00 +27°C° 0 mm 1 mps 721 mmHg 67%
    10:00 +29°C° 0 mm 1 mps 721 mmHg 58%
    11:00 +31°C° 0 mm 1 mps 721 mmHg 52%
    12:00 +32°C° 0 mm 2 mps 721 mmHg 47%
    13:00 +34°C° 0 mm 2 mps 720 mmHg 41%
    14:00 +34°C° 0 mm 2 mps 720 mmHg 41%
    15:00 +35°C° 0 mm 2 mps 720 mmHg 41%
    16:00 +35°C° 0 mm 2 mps 719 mmHg 41%
    17:00 +32°C° 0 mm 2 mps 719 mmHg 51%
    18:00 +30°C° 0 mm 2 mps 719 mmHg 61%
    19:00 +28°C° 0 mm 2 mps 719 mmHg 72%
    20:00 +27°C° 0 mm 2 mps 719 mmHg 78%
    21:00 +25°C° 0 mm 1 mps 719 mmHg 84%
    22:00 +23°C° 0 mm 1 mps 719 mmHg 90%
    23:00 +22°C° 0 mm 1 mps 718 mmHg 90%
    Show more